Tracking 30995 objects as of 5-Jul-2025
HD Live streaming from Space Station
objects crossing your sky now

NOAA 16 DEB

Track NOAA 16 DEB now!
10-day predictions


NORAD ID: 41652
Int'l Code: 2000-055NR
Perigee: 751.5 km
Apogee: 799.6 km
Inclination: 98.9 °
Period: 100.2 minutes
Semi major axis: 7146 km
RCS: Unknown
Launch date: September 21, 2000
Source: United States (US)
Launch site: AIR FORCE WESTERN TEST RANGE (AFWTR)

Note: This is SATELLITE DEBRIS
Your satellite tracking list
Your tracking list is empty




NASA's NSSDC Master Catalog

Two Line Element Set (TLE):
1 41652U 00055NR  25184.50241039  .00007706  00000-0  25957-2 0  9992
2 41652  98.8786 282.3589 0033657  34.2471 326.0876 14.37003024474773
Source of the keplerian elements: AFSPC